DLH8HP ENTC-EDDF

Flight info

Callsign DLH8HP
Flight time 3h 2m
Altitude 32000
Route AMIMO DCT OSS DCT ROKAM/N0451F340 DCT GIMRU DCT HLZ DCT RIMET/N0453F310 T157 KOKEB/N0406F230 T157 KERAX KERAX5A
Aircraft A321/M-SDE3FGHIRWY/LB1

Departure

Time 2026-05-06 18:36
Airport Tromsø Airport (ENTC)

Arrival

Time 2026-05-06 21:38
Airport Frankfurt Main Airport (EDDF)
Time Latitude Longitude Altitude Speed Heading
2026-05-06 18:11 69.67834 18.90835 35 ft 0 kts 282°
2026-05-06 18:28 69.67833 18.90843 34 ft 3 kts 282°
2026-05-06 18:28 69.67829 18.90906 32 ft 3 kts 282°
2026-05-06 18:28 69.67824 18.90970 34 ft 3 kts 282°
2026-05-06 18:28 69.67820 18.91022 34 ft 3 kts 279°
2026-05-06 18:29 69.67818 18.91086 34 ft 3 kts 265°
2026-05-06 18:29 69.67823 18.91144 34 ft 3 kts 232°
2026-05-06 18:29 69.67834 18.91172 34 ft 0 kts 193°
2026-05-06 18:31 69.67831 18.91170 34 ft 1 kts 193°
2026-05-06 18:32 69.67824 18.91165 34 ft 1 kts 193°
2026-05-06 18:32 69.67811 18.91156 34 ft 3 kts 193°
2026-05-06 18:32 69.67784 18.91138 34 ft 5 kts 193°
2026-05-06 18:32 69.67742 18.91109 34 ft 7 kts 193°
2026-05-06 18:33 69.67683 18.91068 34 ft 11 kts 193°
2026-05-06 18:33 69.67632 18.91148 35 ft 8 kts 109°
2026-05-06 18:33 69.67622 18.91270 35 ft 4 kts 100°
2026-05-06 18:33 69.67620 18.91309 39 ft 1 kts 100°
2026-05-06 18:34 69.67615 18.91353 38 ft 6 kts 118°
2026-05-06 18:34 69.67523 18.91352 40 ft 22 kts 193°
2026-05-06 18:34 69.67341 18.91231 35 ft 26 kts 192°
2026-05-06 18:34 69.67248 18.91195 35 ft 8 kts 258°
2026-05-06 18:35 69.67274 18.91174 34 ft 5 kts 16°
2026-05-06 18:35 69.67370 18.91240 36 ft 39 kts 13°
2026-05-06 18:35 69.67885 18.91583 39 ft 110 kts 13°
2026-05-06 18:35 69.68835 18.92218 56 ft 165 kts 14°
2026-05-06 18:36 69.69922 18.92962 871 ft 158 kts 13°
2026-05-06 18:36 69.70999 18.93655 1537 ft 164 kts 13°
2026-05-06 18:36 69.72184 18.94411 1734 ft 183 kts 13°
2026-05-06 18:36 69.73462 18.95274 2110 ft 192 kts 14°
2026-05-06 18:37 69.74794 18.96186 2378 ft 207 kts 13°
2026-05-06 18:37 69.76248 18.97158 2597 ft 224 kts 13°
2026-05-06 18:37 69.77818 18.97135 2987 ft 231 kts 339°
2026-05-06 18:37 69.79045 18.94238 3453 ft 234 kts 300°
2026-05-06 18:38 69.79660 18.89866 4000 ft 236 kts 285°
2026-05-06 18:38 69.80045 18.85226 4540 ft 237 kts 281°
2026-05-06 18:38 69.80334 18.80515 5119 ft 238 kts 279°
2026-05-06 18:38 69.80585 18.75774 5682 ft 238 kts 278°
2026-05-06 18:39 69.80615 18.70984 6213 ft 242 kts 260°
2026-05-06 18:39 69.80046 18.66390 6715 ft 245 kts 242°
2026-05-06 18:39 69.78924 18.62485 6943 ft 265 kts 218°
2026-05-06 18:40 69.75654 18.57082 8076 ft 274 kts 211°
2026-05-06 18:40 69.73971 18.54396 8738 ft 278 kts 211°
2026-05-06 18:40 69.72282 18.51655 9440 ft 278 kts 212°
2026-05-06 18:40 69.70593 18.48893 10096 ft 280 kts 212°
2026-05-06 18:41 69.68840 18.46032 10261 ft 299 kts 212°
2026-05-06 18:41 69.66975 18.42992 10410 ft 317 kts 212°
2026-05-06 18:41 69.65006 18.39802 10535 ft 333 kts 212°
2026-05-06 18:41 69.62959 18.36505 10677 ft 348 kts 212°
2026-05-06 18:42 69.60793 18.33037 10806 ft 364 kts 211°
2026-05-06 18:42 69.58550 18.29459 11052 ft 373 kts 211°
2026-05-06 18:42 69.56269 18.25840 11558 ft 376 kts 212°
2026-05-06 18:42 69.53976 18.22210 12099 ft 377 kts 212°
2026-05-06 18:43 69.51671 18.18564 12644 ft 379 kts 212°
2026-05-06 18:43 69.49356 18.14903 13156 ft 381 kts 212°
2026-05-06 18:43 69.47028 18.11235 13642 ft 383 kts 212°
2026-05-06 18:43 69.44687 18.07560 14087 ft 386 kts 212°
2026-05-06 18:44 69.42319 18.03864 14512 ft 388 kts 212°
2026-05-06 18:44 69.39943 18.00158 14933 ft 391 kts 212°
2026-05-06 18:44 69.37560 17.96417 15344 ft 393 kts 212°
2026-05-06 18:44 69.35172 17.92551 15737 ft 396 kts 212°
2026-05-06 18:45 69.32782 17.88613 16149 ft 398 kts 213°
2026-05-06 18:45 69.30382 17.84641 16545 ft 401 kts 212°
2026-05-06 18:45 69.27971 17.80659 16940 ft 403 kts 212°
2026-05-06 18:45 69.25545 17.76678 17439 ft 404 kts 212°
2026-05-06 18:46 69.23106 17.72713 17879 ft 406 kts 212°
2026-05-06 18:46 69.20651 17.68745 18279 ft 408 kts 212°
2026-05-06 18:46 69.18181 17.64769 18635 ft 410 kts 212°
2026-05-06 18:46 69.15692 17.60784 18970 ft 413 kts 212°
2026-05-06 18:47 69.13192 17.56791 19311 ft 416 kts 211°
2026-05-06 18:47 69.10664 17.52755 19645 ft 418 kts 211°
2026-05-06 18:47 69.08158 17.48758 19965 ft 421 kts 211°
2026-05-06 18:47 69.05575 17.44646 20310 ft 423 kts 211°
2026-05-06 18:48 69.03038 17.40616 20615 ft 426 kts 211°
2026-05-06 18:48 69.00453 17.36521 20945 ft 428 kts 211°
2026-05-06 18:48 68.97853 17.32419 21260 ft 431 kts 210°
2026-05-06 18:48 68.95236 17.28314 21622 ft 432 kts 210°
2026-05-06 18:49 68.92612 17.24214 21950 ft 434 kts 210°
2026-05-06 18:49 68.89970 17.20093 22264 ft 437 kts 210°
2026-05-06 18:49 68.87315 17.15950 22588 ft 439 kts 210°
2026-05-06 18:49 68.84639 17.11788 22910 ft 441 kts 210°
2026-05-06 18:50 68.81953 17.07629 23213 ft 444 kts 210°
2026-05-06 18:50 68.79248 17.03457 23470 ft 446 kts 210°
2026-05-06 18:50 68.76513 16.99371 23715 ft 449 kts 206°
2026-05-06 18:50 68.73601 16.96191 23938 ft 451 kts 198°
2026-05-06 18:51 68.70548 16.94079 24147 ft 453 kts 193°
2026-05-06 18:51 68.67471 16.92180 24352 ft 455 kts 193°
2026-05-06 18:51 68.64365 16.90267 24539 ft 457 kts 193°
2026-05-06 18:51 68.61253 16.88347 24758 ft 459 kts 193°
2026-05-06 18:52 68.58147 16.86426 25041 ft 458 kts 193°
2026-05-06 18:52 68.55033 16.84494 25329 ft 458 kts 193°
2026-05-06 18:52 68.51936 16.82578 25586 ft 457 kts 193°
2026-05-06 18:52 68.48827 16.80665 25862 ft 457 kts 193°
2026-05-06 18:53 68.45725 16.78762 26132 ft 457 kts 193°
2026-05-06 18:53 68.42623 16.76869 26398 ft 457 kts 193°
2026-05-06 18:53 68.39518 16.74985 26666 ft 457 kts 193°
2026-05-06 18:53 68.36413 16.73111 26942 ft 457 kts 193°
2026-05-06 18:54 68.33313 16.71241 27217 ft 456 kts 193°
2026-05-06 18:54 68.30255 16.69395 27496 ft 456 kts 193°
2026-05-06 18:54 68.27126 16.67507 27762 ft 455 kts 193°
2026-05-06 18:54 68.24073 16.65672 28031 ft 455 kts 193°
2026-05-06 18:55 68.20980 16.63828 28277 ft 455 kts 193°
2026-05-06 18:55 68.17886 16.61993 28541 ft 455 kts 193°
2026-05-06 18:55 68.14799 16.60161 28798 ft 455 kts 193°
2026-05-06 18:55 68.11705 16.58324 29056 ft 455 kts 193°
2026-05-06 18:56 68.08613 16.56494 29319 ft 455 kts 193°
2026-05-06 18:56 68.05520 16.54674 29570 ft 455 kts 193°
2026-05-06 18:56 68.02432 16.52860 29816 ft 454 kts 193°
2026-05-06 18:56 67.99339 16.51044 30066 ft 454 kts 193°
2026-05-06 18:57 67.96253 16.49237 30261 ft 453 kts 193°
2026-05-06 18:57 67.93176 16.47444 30447 ft 453 kts 193°
2026-05-06 18:57 67.90099 16.45651 30617 ft 453 kts 193°
2026-05-06 18:57 67.87017 16.43868 30813 ft 453 kts 193°
2026-05-06 18:58 67.83927 16.42186 30973 ft 453 kts 192°
2026-05-06 18:58 67.80839 16.40625 31131 ft 453 kts 191°
2026-05-06 18:58 67.77737 16.39129 31286 ft 453 kts 191°
2026-05-06 18:58 67.74628 16.37654 31456 ft 453 kts 191°
2026-05-06 18:59 67.71529 16.36168 31611 ft 453 kts 191°
2026-05-06 18:59 67.68470 16.34681 31763 ft 452 kts 192°
2026-05-06 18:59 67.65373 16.33156 31890 ft 453 kts 192°
2026-05-06 19:00 67.59146 16.30070 31913 ft 456 kts 192°
2026-05-06 19:00 67.52897 16.26998 31919 ft 457 kts 192°
2026-05-06 19:01 67.46640 16.23960 31926 ft 457 kts 192°
2026-05-06 19:01 67.40384 16.20941 31923 ft 457 kts 192°
2026-05-06 19:02 67.34127 16.17933 31914 ft 457 kts 192°
2026-05-06 19:02 67.27867 16.14951 31930 ft 457 kts 191°
2026-05-06 19:03 67.21601 16.11984 31932 ft 457 kts 191°
2026-05-06 19:03 67.16403 16.09525 31931 ft 457 kts 192°
2026-05-06 19:04 67.10140 16.06566 31943 ft 457 kts 191°
2026-05-06 19:04 67.03885 16.03626 31944 ft 457 kts 191°
2026-05-06 19:05 66.97620 16.00697 31945 ft 458 kts 191°
2026-05-06 19:05 66.91351 15.97798 31948 ft 458 kts 191°
2026-05-06 19:06 66.85088 15.94924 31943 ft 457 kts 191°
2026-05-06 19:06 66.78867 15.92069 31943 ft 457 kts 191°
2026-05-06 19:07 66.72598 15.89187 31935 ft 457 kts 192°
2026-05-06 19:07 66.66347 15.86334 31942 ft 457 kts 191°
2026-05-06 19:08 66.60085 15.83511 31942 ft 457 kts 191°
2026-05-06 19:08 66.53843 15.80700 31943 ft 457 kts 191°
2026-05-06 19:09 66.47573 15.77904 31951 ft 457 kts 191°
2026-05-06 19:09 66.41318 15.75129 31944 ft 456 kts 192°
2026-05-06 19:10 66.35104 15.72362 31948 ft 456 kts 191°
2026-05-06 19:10 66.28858 15.69597 31951 ft 456 kts 192°
2026-05-06 19:11 66.22610 15.66854 31958 ft 456 kts 191°
2026-05-06 19:11 66.16360 15.64155 31959 ft 456 kts 191°
2026-05-06 19:12 66.10115 15.61441 31946 ft 455 kts 192°
2026-05-06 19:12 66.03875 15.58746 31943 ft 455 kts 192°
2026-05-06 19:13 65.97632 15.56047 31941 ft 455 kts 192°
2026-05-06 19:13 65.91391 15.53372 31927 ft 455 kts 191°
2026-05-06 19:14 65.85156 15.50741 31928 ft 455 kts 191°
2026-05-06 19:14 65.78918 15.48108 31907 ft 455 kts 192°
2026-05-06 19:15 65.72689 15.45473 31920 ft 454 kts 192°
2026-05-06 19:15 65.66460 15.42863 31936 ft 454 kts 192°
2026-05-06 19:16 65.60233 15.40258 31944 ft 453 kts 192°
2026-05-06 19:16 65.54019 15.37676 31952 ft 453 kts 192°
2026-05-06 19:17 65.47807 15.35107 31963 ft 452 kts 192°
2026-05-06 19:17 65.41602 15.32550 31962 ft 452 kts 192°
2026-05-06 19:18 65.35447 15.30022 31968 ft 452 kts 192°
2026-05-06 19:18 65.29251 15.27510 31971 ft 451 kts 192°
2026-05-06 19:19 65.23057 15.25005 31972 ft 451 kts 192°
2026-05-06 19:19 65.16867 15.22500 31975 ft 451 kts 192°
2026-05-06 19:20 65.10669 15.20004 31972 ft 451 kts 192°
2026-05-06 19:20 65.04474 15.17532 31981 ft 451 kts 192°
2026-05-06 19:21 64.98289 15.15079 31982 ft 451 kts 192°
2026-05-06 19:21 64.92148 15.12646 31987 ft 450 kts 192°
2026-05-06 19:22 64.85971 15.10202 31983 ft 450 kts 192°
2026-05-06 19:22 64.79808 15.07795 31975 ft 448 kts 192°
2026-05-06 19:23 64.73650 15.05395 31978 ft 448 kts 192°
2026-05-06 19:23 64.67488 15.02989 31981 ft 448 kts 192°
2026-05-06 19:24 64.61339 15.00613 31985 ft 448 kts 192°
2026-05-06 19:24 64.55190 14.98245 31984 ft 448 kts 192°
2026-05-06 19:25 64.49046 14.95887 31980 ft 448 kts 193°
2026-05-06 19:25 64.42905 14.93538 31989 ft 447 kts 193°
2026-05-06 19:26 64.36801 14.91216 31997 ft 447 kts 192°
2026-05-06 19:26 64.30663 14.88904 31996 ft 447 kts 192°
2026-05-06 19:27 64.24517 14.86601 31994 ft 448 kts 192°
2026-05-06 19:27 64.18365 14.84301 31980 ft 447 kts 193°
2026-05-06 19:28 64.12233 14.82011 32008 ft 446 kts 193°
2026-05-06 19:28 64.06108 14.79729 31995 ft 445 kts 193°
2026-05-06 19:29 63.99997 14.77462 32006 ft 445 kts 193°
2026-05-06 19:29 63.93891 14.75214 31991 ft 444 kts 193°
2026-05-06 19:30 63.87790 14.72978 31993 ft 444 kts 193°
2026-05-06 19:30 63.81685 14.70749 31995 ft 444 kts 193°
2026-05-06 19:31 63.75578 14.68530 31994 ft 444 kts 193°
2026-05-06 19:31 63.66423 14.65223 31989 ft 444 kts 193°
2026-05-06 19:32 63.60317 14.63021 31962 ft 444 kts 193°
2026-05-06 19:32 63.54223 14.60841 31976 ft 443 kts 193°
2026-05-06 19:33 63.48148 14.58673 31979 ft 442 kts 193°
2026-05-06 19:33 63.42072 14.56518 31991 ft 442 kts 193°
2026-05-06 19:34 63.36004 14.54375 31990 ft 441 kts 193°
2026-05-06 19:34 63.29928 14.52239 31959 ft 442 kts 193°
2026-05-06 19:35 63.23899 14.50141 31936 ft 441 kts 193°
2026-05-06 19:35 63.17849 14.48007 31941 ft 440 kts 194°
2026-05-06 19:36 63.11841 14.45552 31939 ft 439 kts 195°
2026-05-06 19:36 63.05843 14.42975 31947 ft 438 kts 195°
2026-05-06 19:37 62.99842 14.40464 31925 ft 438 kts 195°
2026-05-06 19:37 62.94868 14.38450 31955 ft 437 kts 195°
2026-05-06 19:38 62.87885 14.35654 31974 ft 436 kts 195°
2026-05-06 19:38 62.81918 14.33236 31977 ft 435 kts 195°
2026-05-06 19:39 62.75968 14.30817 31975 ft 435 kts 195°
2026-05-06 19:39 62.70051 14.28445 31937 ft 434 kts 195°
2026-05-06 19:40 62.64105 14.26074 31970 ft 433 kts 195°
2026-05-06 19:40 62.58174 14.23720 31977 ft 433 kts 195°
2026-05-06 19:41 62.52255 14.21376 31975 ft 433 kts 195°
2026-05-06 19:41 62.46334 14.19037 31976 ft 432 kts 195°
2026-05-06 19:42 62.40416 14.16717 31942 ft 432 kts 196°
2026-05-06 19:42 62.34504 14.14419 31962 ft 431 kts 196°
2026-05-06 19:43 62.28603 14.12126 31964 ft 431 kts 196°
2026-05-06 19:43 62.22706 14.09826 31960 ft 430 kts 196°
2026-05-06 19:44 62.16823 14.07546 31954 ft 430 kts 196°
2026-05-06 19:44 62.10929 14.05272 31930 ft 430 kts 197°
2026-05-06 19:45 62.05057 14.03038 31965 ft 428 kts 197°
2026-05-06 19:45 61.99187 14.00802 31974 ft 428 kts 197°
2026-05-06 19:46 61.93327 13.98563 31971 ft 427 kts 196°
2026-05-06 19:46 61.87522 13.96364 31969 ft 426 kts 196°
2026-05-06 19:47 61.81680 13.94148 31931 ft 426 kts 197°
2026-05-06 19:47 61.75855 13.91943 31958 ft 425 kts 197°
2026-05-06 19:48 61.70032 13.89779 31965 ft 424 kts 197°
2026-05-06 19:48 61.64227 13.87609 31965 ft 424 kts 197°
2026-05-06 19:49 61.59364 13.85802 31967 ft 423 kts 197°
2026-05-06 19:49 61.53560 13.83640 31961 ft 423 kts 197°
2026-05-06 19:50 61.47765 13.81491 31945 ft 422 kts 197°
2026-05-06 19:50 61.42016 13.79389 31960 ft 421 kts 197°
2026-05-06 19:51 61.36206 13.77266 31961 ft 421 kts 197°
2026-05-06 19:51 61.30481 13.75166 31959 ft 421 kts 197°
2026-05-06 19:52 61.24719 13.73070 31958 ft 420 kts 197°
2026-05-06 19:52 61.18958 13.70995 31932 ft 419 kts 197°
2026-05-06 19:53 61.13210 13.68921 31955 ft 419 kts 197°
2026-05-06 19:53 61.07479 13.66860 31957 ft 418 kts 197°
2026-05-06 19:54 61.01753 13.64806 31958 ft 417 kts 197°
2026-05-06 19:54 60.96033 13.62763 31960 ft 417 kts 197°
2026-05-06 19:55 60.90315 13.60716 31952 ft 417 kts 197°
2026-05-06 19:55 60.84600 13.58704 31948 ft 417 kts 197°
2026-05-06 19:56 60.78919 13.56699 31951 ft 417 kts 197°
2026-05-06 19:56 60.73208 13.54675 31953 ft 417 kts 197°
2026-05-06 19:57 60.67490 13.52669 31953 ft 417 kts 197°
2026-05-06 19:57 60.61769 13.50681 31918 ft 416 kts 197°
2026-05-06 19:58 60.56060 13.48697 31943 ft 416 kts 197°
2026-05-06 19:58 60.50355 13.46720 31948 ft 415 kts 197°
2026-05-06 19:59 60.44658 13.44740 31963 ft 415 kts 197°
2026-05-06 19:59 60.38960 13.42779 31948 ft 415 kts 197°
2026-05-06 20:00 60.33264 13.40818 31923 ft 415 kts 197°
2026-05-06 20:00 60.27579 13.38867 31944 ft 414 kts 197°
2026-05-06 20:01 60.21895 13.36962 31950 ft 414 kts 197°
2026-05-06 20:01 60.16220 13.35037 31950 ft 414 kts 197°
2026-05-06 20:02 60.10539 13.33103 31958 ft 414 kts 197°
2026-05-06 20:02 60.04852 13.31179 31915 ft 414 kts 197°
2026-05-06 20:03 59.99171 13.29260 31938 ft 414 kts 197°
2026-05-06 20:03 59.93531 13.27371 31950 ft 414 kts 196°
2026-05-06 20:04 59.87839 13.25470 31956 ft 414 kts 196°
2026-05-06 20:04 59.82157 13.23595 31951 ft 414 kts 196°
2026-05-06 20:05 59.76466 13.21716 31908 ft 414 kts 196°
2026-05-06 20:05 59.70790 13.19837 31939 ft 413 kts 196°
2026-05-06 20:06 59.65127 13.17960 31962 ft 412 kts 196°
2026-05-06 20:06 59.59472 13.16116 31963 ft 412 kts 196°
2026-05-06 20:07 59.53814 13.14279 31966 ft 412 kts 196°
2026-05-06 20:07 59.48162 13.12432 31935 ft 411 kts 196°
2026-05-06 20:08 59.42515 13.10597 31955 ft 411 kts 196°
2026-05-06 20:08 59.36871 13.08764 31968 ft 411 kts 196°
2026-05-06 20:09 59.31267 13.06950 31970 ft 411 kts 196°
2026-05-06 20:09 59.25621 13.05128 31972 ft 411 kts 196°
2026-05-06 20:10 59.19984 13.03317 31928 ft 410 kts 195°
2026-05-06 20:10 59.14337 13.01524 31948 ft 410 kts 195°
2026-05-06 20:11 59.08713 12.99743 31964 ft 410 kts 195°
2026-05-06 20:11 59.03086 12.97965 31974 ft 410 kts 195°
2026-05-06 20:12 58.97454 12.96189 31976 ft 410 kts 195°
2026-05-06 20:12 58.91831 12.94416 31940 ft 410 kts 195°
2026-05-06 20:13 58.86202 12.92643 31951 ft 409 kts 195°
2026-05-06 20:13 58.80574 12.90876 31959 ft 410 kts 195°
2026-05-06 20:14 58.74937 12.89121 31967 ft 410 kts 195°
2026-05-06 20:14 58.69335 12.87368 31969 ft 411 kts 195°
2026-05-06 20:15 58.63696 12.85619 31931 ft 411 kts 195°
2026-05-06 20:15 58.58043 12.83892 31946 ft 411 kts 195°
2026-05-06 20:16 58.52354 12.82142 31957 ft 412 kts 195°
2026-05-06 20:16 58.46732 12.80411 31963 ft 412 kts 195°
2026-05-06 20:17 58.41073 12.78682 31965 ft 412 kts 195°
2026-05-06 20:17 58.35411 12.76964 31951 ft 412 kts 195°
2026-05-06 20:18 58.29749 12.75236 31965 ft 412 kts 195°
2026-05-06 20:18 58.24086 12.73516 31978 ft 412 kts 194°
2026-05-06 20:19 58.18412 12.71800 31982 ft 413 kts 194°
2026-05-06 20:19 58.12743 12.70083 31981 ft 413 kts 194°
2026-05-06 20:20 58.07060 12.68379 31982 ft 413 kts 194°
2026-05-06 20:20 58.01384 12.66688 31984 ft 413 kts 194°
2026-05-06 20:21 57.95704 12.65007 31981 ft 414 kts 194°
2026-05-06 20:21 57.89966 12.63297 31998 ft 420 kts 194°
2026-05-06 20:22 57.87077 12.62433 32130 ft 421 kts 194°
2026-05-06 20:22 57.84186 12.61575 32224 ft 421 kts 194°
2026-05-06 20:22 57.81287 12.60725 32356 ft 422 kts 194°
2026-05-06 20:22 57.78382 12.59872 32490 ft 422 kts 194°
2026-05-06 20:23 57.75517 12.59028 32623 ft 422 kts 194°
2026-05-06 20:23 57.72616 12.58175 32758 ft 422 kts 194°
2026-05-06 20:23 57.69720 12.57323 32894 ft 422 kts 194°
2026-05-06 20:23 57.66822 12.56474 33030 ft 422 kts 194°
2026-05-06 20:24 57.63921 12.55623 33162 ft 422 kts 194°
2026-05-06 20:24 57.61019 12.54771 33301 ft 422 kts 194°
2026-05-06 20:24 57.58122 12.53926 33439 ft 422 kts 194°
2026-05-06 20:24 57.55212 12.53081 33541 ft 422 kts 193°
2026-05-06 20:25 57.52314 12.52239 33683 ft 422 kts 193°
2026-05-06 20:25 57.49416 12.51397 33830 ft 421 kts 193°
2026-05-06 20:25 57.46526 12.50557 33966 ft 421 kts 193°
2026-05-06 20:25 57.43619 12.49712 33975 ft 424 kts 193°
2026-05-06 20:26 57.37753 12.48020 33975 ft 429 kts 193°
2026-05-06 20:26 57.31822 12.46321 33975 ft 434 kts 193°
2026-05-06 20:27 57.25826 12.44604 33979 ft 437 kts 193°
2026-05-06 20:27 57.19813 12.42896 33974 ft 437 kts 193°
2026-05-06 20:28 57.13799 12.41177 33980 ft 438 kts 193°
2026-05-06 20:28 57.07770 12.39463 33986 ft 438 kts 193°
2026-05-06 20:29 57.01788 12.37772 33970 ft 438 kts 193°
2026-05-06 20:29 56.95749 12.36071 33978 ft 439 kts 193°
2026-05-06 20:30 56.86692 12.33518 34004 ft 439 kts 193°
2026-05-06 20:31 56.80644 12.31834 33997 ft 439 kts 192°
2026-05-06 20:31 56.74599 12.30153 33983 ft 439 kts 192°
2026-05-06 20:32 56.68549 12.28480 33998 ft 440 kts 192°
2026-05-06 20:32 56.62488 12.26794 34003 ft 440 kts 192°
2026-05-06 20:33 56.56429 12.25107 33993 ft 440 kts 192°
2026-05-06 20:33 56.51401 12.23723 33988 ft 438 kts 192°
2026-05-06 20:34 56.45354 12.22060 33992 ft 440 kts 192°
2026-05-06 20:34 56.39300 12.20403 33989 ft 440 kts 192°
2026-05-06 20:35 56.33238 12.18754 33988 ft 440 kts 192°
2026-05-06 20:35 56.27335 12.16091 33989 ft 437 kts 199°
2026-05-06 20:36 56.21485 12.13060 33974 ft 438 kts 198°
2026-05-06 20:36 56.15611 12.10032 33978 ft 439 kts 198°
2026-05-06 20:37 56.09727 12.07025 33985 ft 440 kts 198°
2026-05-06 20:37 56.03871 12.04032 33993 ft 441 kts 198°
2026-05-06 20:38 55.97970 12.01010 33985 ft 442 kts 198°
2026-05-06 20:38 55.92043 11.97987 33985 ft 443 kts 198°
2026-05-06 20:39 55.86111 11.94982 33994 ft 444 kts 198°
2026-05-06 20:39 55.80166 11.91983 34003 ft 444 kts 198°
2026-05-06 20:40 55.74212 11.88993 34011 ft 445 kts 198°
2026-05-06 20:40 55.68256 11.86003 34001 ft 446 kts 198°
2026-05-06 20:41 55.62284 11.83011 34000 ft 446 kts 198°
2026-05-06 20:41 55.56307 11.80027 34000 ft 446 kts 198°
2026-05-06 20:42 55.50323 11.77060 33997 ft 446 kts 198°
2026-05-06 20:42 55.44342 11.74084 34002 ft 447 kts 198°
2026-05-06 20:43 55.38378 11.71135 34011 ft 447 kts 198°
2026-05-06 20:43 55.32380 11.68186 34011 ft 448 kts 198°
2026-05-06 20:44 55.26375 11.65242 34010 ft 448 kts 198°
2026-05-06 20:44 55.20369 11.62303 33995 ft 449 kts 198°
2026-05-06 20:45 55.14346 11.59361 34010 ft 450 kts 198°
2026-05-06 20:45 55.08320 11.56438 34015 ft 450 kts 198°
2026-05-06 20:46 55.02289 11.53517 34013 ft 450 kts 198°
2026-05-06 20:46 54.96258 11.50593 33993 ft 450 kts 198°
2026-05-06 20:47 54.90216 11.47672 33992 ft 451 kts 198°
2026-05-06 20:47 54.84159 11.44767 34002 ft 452 kts 197°
2026-05-06 20:48 54.78087 11.41862 33993 ft 453 kts 197°
2026-05-06 20:48 54.72006 11.38968 33989 ft 453 kts 197°
2026-05-06 20:49 54.65929 11.36076 33981 ft 453 kts 198°
2026-05-06 20:49 54.59882 11.33205 33985 ft 454 kts 197°
2026-05-06 20:50 54.53723 11.30798 33989 ft 456 kts 190°
2026-05-06 20:50 54.47438 11.29253 33966 ft 457 kts 190°
2026-05-06 20:51 54.41144 11.27689 33968 ft 457 kts 190°
2026-05-06 20:51 54.34841 11.26119 33964 ft 458 kts 190°
2026-05-06 20:52 54.28526 11.24569 33971 ft 458 kts 190°
2026-05-06 20:52 54.22211 11.23025 33961 ft 458 kts 190°
2026-05-06 20:53 54.15903 11.21478 33970 ft 458 kts 190°
2026-05-06 20:53 54.09597 11.19953 33963 ft 458 kts 190°
2026-05-06 20:54 54.03289 11.18427 33975 ft 458 kts 190°
2026-05-06 20:54 53.96985 11.16894 33949 ft 457 kts 190°
2026-05-06 20:55 53.90689 11.15365 33952 ft 457 kts 190°
2026-05-06 20:55 53.84434 11.13876 33951 ft 456 kts 190°
2026-05-06 20:56 53.78153 11.12378 33952 ft 456 kts 190°
2026-05-06 20:56 53.71863 11.10870 33933 ft 456 kts 190°
2026-05-06 20:57 53.65576 11.09366 33948 ft 456 kts 190°
2026-05-06 20:57 53.59291 11.07866 33944 ft 456 kts 190°
2026-05-06 20:58 53.52997 11.06379 33945 ft 456 kts 190°
2026-05-06 20:58 53.46711 11.04903 33928 ft 456 kts 190°
2026-05-06 20:59 53.40427 11.03427 33938 ft 455 kts 190°
2026-05-06 20:59 53.34150 11.01944 33941 ft 455 kts 190°
2026-05-06 21:00 53.27881 11.00473 33935 ft 455 kts 190°
2026-05-06 21:00 53.21612 10.99010 33920 ft 454 kts 190°
2026-05-06 21:01 53.15359 10.97558 33932 ft 453 kts 190°
2026-05-06 21:01 53.09115 10.96108 33930 ft 453 kts 190°
2026-05-06 21:02 53.02870 10.94661 33926 ft 452 kts 190°
2026-05-06 21:02 52.96636 10.93223 33926 ft 451 kts 190°
2026-05-06 21:03 52.90457 10.91792 33921 ft 451 kts 190°
2026-05-06 21:03 52.84192 10.90350 33912 ft 451 kts 190°
2026-05-06 21:04 52.78011 10.88949 33914 ft 451 kts 190°
2026-05-06 21:04 52.71790 10.87537 33901 ft 451 kts 190°
2026-05-06 21:05 52.65570 10.86122 33904 ft 451 kts 190°
2026-05-06 21:05 52.59343 10.84710 33903 ft 451 kts 190°
2026-05-06 21:06 52.53134 10.83299 33894 ft 450 kts 190°
2026-05-06 21:06 52.46922 10.81906 33892 ft 450 kts 190°
2026-05-06 21:07 52.40714 10.80518 33893 ft 449 kts 190°
2026-05-06 21:07 52.34618 10.78550 33894 ft 445 kts 201°
2026-05-06 21:08 52.28770 10.75200 33892 ft 445 kts 200°
2026-05-06 21:08 52.22913 10.71869 33889 ft 445 kts 200°
2026-05-06 21:09 52.17108 10.68562 33887 ft 444 kts 200°
2026-05-06 21:09 52.11277 10.65247 33883 ft 444 kts 200°
2026-05-06 21:10 52.05446 10.61952 33883 ft 444 kts 200°
2026-05-06 21:10 51.99616 10.58677 33875 ft 443 kts 200°
2026-05-06 21:11 51.93792 10.55403 33862 ft 442 kts 200°
2026-05-06 21:11 51.87998 10.52144 33837 ft 440 kts 200°
2026-05-06 21:12 51.82220 10.48903 33835 ft 439 kts 200°
2026-05-06 21:12 51.76453 10.45687 33835 ft 438 kts 200°
2026-05-06 21:13 51.70685 10.42491 33834 ft 438 kts 200°
2026-05-06 21:13 51.64929 10.39304 33843 ft 438 kts 200°
2026-05-06 21:14 51.59161 10.36102 33849 ft 438 kts 200°
2026-05-06 21:14 51.53395 10.32921 33856 ft 438 kts 200°
2026-05-06 21:15 51.47634 10.29751 33862 ft 438 kts 200°
2026-05-06 21:15 51.41872 10.26578 33865 ft 437 kts 200°
2026-05-06 21:16 51.36121 10.23441 33852 ft 437 kts 200°
2026-05-06 21:16 51.31164 10.21922 33857 ft 439 kts 184°
2026-05-06 21:17 51.24060 10.21779 33860 ft 439 kts 183°
2026-05-06 21:17 51.18961 10.21659 33774 ft 435 kts 183°
2026-05-06 21:17 51.15937 10.21589 33074 ft 433 kts 183°
2026-05-06 21:18 51.12915 10.21523 32539 ft 435 kts 183°
2026-05-06 21:18 51.09915 10.21461 32010 ft 437 kts 182°
2026-05-06 21:18 51.06873 10.21411 31486 ft 438 kts 182°
2026-05-06 21:18 51.03816 10.21363 30970 ft 440 kts 181°
2026-05-06 21:19 51.00753 10.21314 30468 ft 441 kts 181°
2026-05-06 21:19 50.97680 10.21263 29974 ft 443 kts 181°
2026-05-06 21:19 50.94594 10.21207 29079 ft 444 kts 181°
2026-05-06 21:19 50.91509 10.21148 27860 ft 439 kts 181°
2026-05-06 21:20 50.88486 10.21088 26773 ft 431 kts 181°
2026-05-06 21:20 50.85505 10.21023 25733 ft 426 kts 182°
2026-05-06 21:20 50.82614 10.20301 24741 ft 419 kts 198°
2026-05-06 21:20 50.80030 10.18254 23753 ft 415 kts 216°
2026-05-06 21:21 50.78021 10.15056 22970 ft 411 kts 234°
2026-05-06 21:21 50.76609 10.11117 22238 ft 412 kts 242°
2026-05-06 21:21 50.75316 10.07080 21520 ft 412 kts 242°
2026-05-06 21:21 50.74030 10.03055 20790 ft 409 kts 242°
2026-05-06 21:22 50.72751 9.99054 20071 ft 407 kts 242°
2026-05-06 21:22 50.71477 9.95072 19361 ft 405 kts 243°
2026-05-06 21:22 50.70212 9.91121 18672 ft 403 kts 243°
2026-05-06 21:22 50.68952 9.87187 18098 ft 398 kts 243°
2026-05-06 21:23 50.67712 9.83330 17587 ft 391 kts 243°
2026-05-06 21:23 50.66490 9.79539 17069 ft 384 kts 243°
2026-05-06 21:23 50.65291 9.75825 16481 ft 380 kts 243°
2026-05-06 21:23 50.64081 9.72137 15888 ft 376 kts 239°
2026-05-06 21:24 50.62518 9.68875 15291 ft 371 kts 225°
2026-05-06 21:24 50.60532 9.66391 14698 ft 368 kts 211°
2026-05-06 21:24 50.58218 9.64695 13968 ft 364 kts 202°
2026-05-06 21:24 50.55865 9.63257 12965 ft 361 kts 202°
2026-05-06 21:25 50.53532 9.61848 12219 ft 357 kts 202°
2026-05-06 21:25 50.51219 9.60439 11670 ft 355 kts 204°
2026-05-06 21:25 50.49132 9.58456 11177 ft 349 kts 221°
2026-05-06 21:25 50.47476 9.55640 11053 ft 351 kts 230°
2026-05-06 21:26 50.45906 9.52711 10900 ft 350 kts 230°
2026-05-06 21:26 50.44343 9.49797 10822 ft 348 kts 230°
2026-05-06 21:26 50.42785 9.46881 10847 ft 349 kts 230°
2026-05-06 21:26 50.41230 9.43960 10851 ft 349 kts 230°
2026-05-06 21:27 50.39677 9.41042 10852 ft 349 kts 230°
2026-05-06 21:27 50.38122 9.38123 10829 ft 349 kts 230°
2026-05-06 21:27 50.36560 9.35193 10197 ft 351 kts 230°
2026-05-06 21:27 50.35039 9.32342 10016 ft 328 kts 230°
2026-05-06 21:28 50.33616 9.29682 9890 ft 309 kts 230°
2026-05-06 21:28 50.32286 9.27205 9686 ft 286 kts 230°
2026-05-06 21:28 50.31027 9.24864 9079 ft 278 kts 230°
2026-05-06 21:28 50.29808 9.22593 8506 ft 273 kts 230°
2026-05-06 21:29 50.28580 9.20307 8069 ft 273 kts 230°
2026-05-06 21:29 50.27347 9.18010 7681 ft 271 kts 230°
2026-05-06 21:29 50.26137 9.15759 7294 ft 269 kts 230°
2026-05-06 21:29 50.24939 9.13532 6945 ft 267 kts 230°
2026-05-06 21:30 50.23746 9.11314 6580 ft 265 kts 230°
2026-05-06 21:30 50.22560 9.09116 6233 ft 265 kts 231°
2026-05-06 21:30 50.21387 9.06939 5991 ft 265 kts 231°
2026-05-06 21:30 50.20188 9.04719 5704 ft 267 kts 230°
2026-05-06 21:31 50.18913 9.02625 5403 ft 267 kts 219°
2026-05-06 21:31 50.17322 9.01162 5072 ft 267 kts 202°
2026-05-06 21:31 50.15526 9.00444 4724 ft 266 kts 191°
2026-05-06 21:31 50.13714 8.99922 4479 ft 266 kts 192°
2026-05-06 21:32 50.11892 8.99383 4277 ft 267 kts 192°
2026-05-06 21:32 50.08700 8.96800 3829 ft 259 kts 230°
2026-05-06 21:32 50.07703 8.94473 3674 ft 259 kts 246°
2026-05-06 21:33 50.07110 8.91857 3405 ft 254 kts 253°
2026-05-06 21:33 50.06573 8.89298 3216 ft 245 kts 254°
2026-05-06 21:33 50.06163 8.86806 3056 ft 228 kts 269°
2026-05-06 21:33 50.06238 8.84438 2939 ft 215 kts 278°
2026-05-06 21:34 50.06381 8.82148 2723 ft 208 kts 276°
2026-05-06 21:34 50.06480 8.80052 2608 ft 181 kts 276°
2026-05-06 21:34 50.06551 8.78244 2487 ft 157 kts 275°
2026-05-06 21:34 50.06612 8.76599 2344 ft 148 kts 275°
2026-05-06 21:35 50.06679 8.75043 2235 ft 145 kts 276°
2026-05-06 21:35 50.06750 8.73473 2175 ft 143 kts 276°
2026-05-06 21:35 50.06823 8.71929 2105 ft 143 kts 276°
2026-05-06 21:35 50.06789 8.70410 1998 ft 144 kts 260°
2026-05-06 21:36 50.06452 8.68937 1802 ft 144 kts 252°
2026-05-06 21:36 50.06097 8.67496 1586 ft 143 kts 252°
2026-05-06 21:36 50.05746 8.66044 1400 ft 147 kts 253°
2026-05-06 21:36 50.05390 8.64559 1198 ft 146 kts 252°
2026-05-06 21:37 50.05041 8.63085 1013 ft 143 kts 252°
2026-05-06 21:37 50.04718 8.61635 847 ft 142 kts 251°
2026-05-06 21:37 50.04376 8.60187 641 ft 142 kts 251°
2026-05-06 21:37 50.04029 8.58771 426 ft 138 kts 250°
2026-05-06 21:38 50.03716 8.57448 363 ft 114 kts 249°
2026-05-06 21:38 50.03502 8.56546 357 ft 64 kts 249°
2026-05-06 21:38 50.03400 8.56114 354 ft 32 kts 249°
2026-05-06 21:38 50.03326 8.55789 347 ft 31 kts 255°
2026-05-06 21:39 50.03317 8.55474 348 ft 25 kts 279°
2026-05-06 21:39 50.03341 8.55258 348 ft 10 kts 281°
2026-05-06 21:39 50.03350 8.55174 349 ft 8 kts 280°
2026-05-06 21:39 50.03361 8.55086 352 ft 8 kts 281°
2026-05-06 21:40 50.03367 8.55000 342 ft 9 kts 270°
2026-05-06 21:40 50.03354 8.54895 341 ft 12 kts 249°
2026-05-06 21:40 50.03322 8.54760 339 ft 15 kts 250°
2026-05-06 21:40 50.03285 8.54603 335 ft 17 kts 249°
2026-05-06 21:41 50.03299 8.54490 338 ft 10 kts 329°
2026-05-06 21:41 50.03363 8.54451 338 ft 9 kts 340°
2026-05-06 21:41 50.03384 8.54440 337 ft 2 kts 340°
2026-05-06 21:41 50.03435 8.54410 350 ft 16 kts 340°
2026-05-06 21:42 50.03572 8.54332 339 ft 23 kts 339°
2026-05-06 21:42 50.03667 8.54360 342 ft 14 kts 63°
2026-05-06 21:42 50.03706 8.54517 343 ft 18 kts 70°
2026-05-06 21:42 50.03754 8.54716 354 ft 21 kts 70°
2026-05-06 21:43 50.03803 8.54924 354 ft 21 kts 70°
2026-05-06 21:43 50.03856 8.55149 357 ft 24 kts 70°
2026-05-06 21:43 50.03916 8.55393 356 ft 25 kts 69°
2026-05-06 21:43 50.03976 8.55647 352 ft 25 kts 70°
2026-05-06 21:44 50.04037 8.55902 351 ft 24 kts 70°
2026-05-06 21:44 50.04095 8.56143 354 ft 24 kts 69°
2026-05-06 21:44 50.04153 8.56386 358 ft 24 kts 70°
2026-05-06 21:44 50.04208 8.56617 363 ft 21 kts 69°
2026-05-06 21:45 50.04248 8.56777 363 ft 14 kts 59°
2026-05-06 21:45 50.04334 8.56822 360 ft 14 kts 11°
2026-05-06 21:45 50.04435 8.56850 366 ft 16 kts
2026-05-06 21:45 50.04545 8.56888 361 ft 17 kts 13°
2026-05-06 21:46 50.04645 8.56928 364 ft 13 kts 22°
2026-05-06 21:46 50.04733 8.56991 357 ft 14 kts 24°
2026-05-06 21:46 50.04806 8.57042 359 ft 7 kts 24°
2026-05-06 21:46 50.04821 8.57043 356 ft 0 kts 349°
2026-05-06 21:47 50.04822 8.57040 356 ft 1 kts 333°
2026-05-06 21:47 50.04832 8.57018 362 ft 3 kts 296°
2026-05-06 21:47 50.04842 8.56982 364 ft 4 kts 294°
2026-05-06 21:47 50.04850 8.56954 356 ft 1 kts 294°
2026-05-06 21:48 50.04852 8.56948 363 ft 0 kts 294°